#timestamp,LO_Frequency,Hit,StdDev 
1525057215.2,286047002.7,N
1525057235.1,286047000.4,N
1525057236.0,286047000.4,N
1525057255.8,286047002.8,N
1525057275.6,286047001.8,N
1525057295.5,286047002.9,N
1525057315.3,286047005.8,Y
1525057335.2,286047002.1,P
1525057355.9,286047000.5,P
1525057375.7,286046999.9,N
1525057395.6,286047000.7,N
1525057415.4,286047000.2,N
1525057435.2,286047000.5,N
1525057455.1,286047000.1,N
1525057456.0,286047000.1,N
1525057475.8,286047001.1,N
1525057495.7,286046998.5,N
1525057515.5,286046998.2,N
1525057535.3,286046999.2,N
1525057555.2,286046999.1,N
1525057575.0,286046998.5,N
1525057575.9,286046998.5,N
1525057595.8,286046998.8,N
1525057615.6,286046998.4,N
1525057635.4,286047001.1,N
1525057655.3,286046998.5,N
1525057675.1,286047001.2,N
1525057695.8,286047000.6,N
1525057715.7,286047000.5,N
1525057735.5,286047000.2,N
1525057755.4,286046998.8,N
1525057775.2,286047000.5,N
1525057795.0,286047000.6,N
1525057795.9,286047000.6,N
1525057815.8,286047001.3,N
1525057835.6,286047002.8,N
1525057855.5,286047004.0,Y
1525057875.3,286047003.7,P
1525057895.1,286047004.2,N
1525057915.9,286047001.8,N
1525057935.7,286047003.8,N
1525057955.5,286047004.4,N
1525057975.4,286047001.8,N
1525057995.2,286047004.0,N
1525058015.1,286047003.4,N
1525058016.0,286047003.4,N
1525058035.8,286047001.4,N
1525058055.6,286047002.3,N
1525058075.5,286047002.5,N
1525058095.3,286047004.4,Y
1525058115.2,286046999.0,P
1525058135.9,286046996.7,N
1525058155.7,286046998.5,N
1525058175.6,286046998.9,N
1525058195.4,286046996.5,N
1525058215.2,286046999.3,N
1525058235.1,286046998.9,N
1525058236.0,286046998.9,N
1525058255.8,286046998.7,N
1525058275.7,286046997.8,N
1525058295.5,286046997.7,N
1525058315.3,286046994.9,Y
1525058335.2,286046996.6,P
1525058355.0,286046996.9,P
1525058355.9,286046996.9,P
1525058375.8,286046998.2,N
1525058395.6,286046996.6,Y
1525058415.4,286047000.7,P
1525058435.3,286047001.9,N
1525058455.1,286047002.6,N
1525058475.8,286047000.1,N
1525058495.7,286046998.6,N
1525058515.5,286047001.1,N
1525058535.4,286047000.5,N
1525058555.2,286047000.8,N
1525058575.0,286046998.1,N
1525058575.9,286046998.1,N
1525058595.8,286046998.8,N
1525058615.6,286046997.0,N
1525058635.4,286046997.3,N
1525058655.3,286046996.5,N
1525058675.1,286046996.8,N
1525058695.9,286046997.5,N
1525058715.7,286046997.8,N
1525058735.5,286046996.8,N
1525058755.4,286046997.9,N
1525058775.2,286046995.4,N
1525058795.0,286046997.8,N
1525058795.9,286046997.8,N
1525058815.8,286046994.9,N
1525058835.6,286046995.5,N
1525058855.5,286046998.0,N
1525058875.3,286046995.4,N
1525058895.1,286046995.6,N
1525058915.9,286046995.8,N
1525058935.7,286046995.2,N
1525058955.6,286046998.0,N
1525058975.4,286046997.4,N
1525058995.2,286046999.2,N
1525059015.1,286046999.1,N
1525059016.0,286046999.1,N
1525059035.8,286046997.0,N
1525059055.6,286046995.5,N
1525059075.5,286046995.9,N
1525059095.3,286046994.6,Y
1525059115.2,286046997.9,P
1525059135.9,286046997.2,P
1525059155.7,286046996.5,P
1525059175.6,286046998.8,N
1525059195.4,286046996.6,Y
1525059215.2,286047002.5,P
1525059235.1,286046998.6,N
1525059236.0,286046998.6,N
1525059255.8,286047001.0,N
1525059275.7,286047001.2,N
1525059295.5,286047000.7,N
1525059315.3,286046998.6,N
1525059335.2,286046999.4,N
1525059355.0,286046998.6,N
1525059355.9,286046998.6,N
1525059375.8,286046996.5,N
1525059395.6,286046999.3,N
1525059415.4,286046999.2,N
1525059435.3,286046999.2,N
1525059455.1,286046998.7,N
1525059475.9,286046999.3,N
1525059495.7,286046996.5,N
1525059515.5,286046997.4,N
1525059535.4,286046997.1,N
1525059555.2,286046999.5,N
1525059575.0,286046999.0,N
1525059575.9,286046999.0,N
1525059595.8,286046996.5,N
1525059615.6,286046997.2,N
1525059635.5,286046997.0,N
1525059655.3,286046997.0,N
1525059675.1,286046996.8,N
1525059695.9,286046998.8,N
1525059715.7,286046999.3,N
1525059735.5,286046999.3,N
1525059755.4,286046998.9,N
1525059775.2,286046998.3,N
1525059795.1,286046999.3,N
1525059796.0,286046999.3,N
1525059815.8,286046996.8,N
1525059835.6,286046997.0,N
1525059855.5,286046999.4,N
1525059875.3,286046999.1,N
1525059895.2,286046998.7,N
1525059915.9,286046999.5,N
1525059935.7,286046997.0,N
1525059955.6,286046996.5,Y
1525059975.4,286047001.1,P
1525059995.2,286046998.2,N
1525060015.1,286046998.3,N
1525060016.0,286046998.3,N
1525060035.8,286047011.9,Y
1525060055.7,286047002.4,P
1525060075.5,286047002.4,N
1525060095.3,286047000.5,N
1525060115.2,286046996.6,N
1525060135.0,286046998.3,N
1525060135.9,286046998.3,N
1525060155.8,286046999.5,N
1525060175.6,286046996.6,N
1525060195.4,286046999.6,N
1525060215.3,286046998.9,N
1525060235.1,286046998.3,N
1525060255.8,286046997.0,N
1525060275.7,286046998.8,N
1525060295.5,286046996.8,N
1525060315.4,286046997.4,N
1525060335.2,286046995.3,N
1525060355.0,286046997.5,N
1525060355.9,286046997.5,N
1525060375.8,286046995.7,N
1525060395.6,286046996.4,N
1525060415.4,286046996.0,N
1525060435.3,286046996.0,N
1525060455.1,286046994.9,N
1525060475.9,286046996.0,N
1525060495.7,286046997.3,N
1525060515.5,286046996.6,N
1525060535.4,286046996.6,N
1525060555.2,286046998.5,N
1525060575.0,286047000.7,N
1525060575.9,286047000.7,N
1525060595.8,286046998.7,N
1525060615.6,286046999.0,N
1525060635.5,286046999.2,N
1525060655.3,286046997.2,N
1525060675.1,286046997.5,N
1525060695.9,286046997.1,N
1525060715.7,286046996.5,N
1525060735.5,286046998.6,N
1525060755.4,286046998.3,N
1525060775.2,286047000.6,N
1525060795.1,286047000.9,N
1525060796.0,286047000.9,N
